[[{"header":{"parameterUnit":"m.s-1","parameterCategory":2,"la1":30.2991,"la2":30.254,"lo1":-89.0895,"lo2":-89.0444,"dy":0.0017,"dx":0.0017,"nx":28,"ny":28,"refTime":"2025-04-26T21:00:00:Z","depth":"0","parameterNumber":2,"parameterNumberName":"U-component_of_CURRENTS"},"data":[0,0,0,0,0,0,0,0,0,0,0,0,0,0,0,0,0,0,0,0,0,0,0,0,0,0,0,0,0,0,0,0,0,0,0,0,0,0,0,0,0,0,0,0,0,0,0,0,0,0,0,0,0,0,0,0,0,0,0.2143,0.2144,0,0.22,0.2201,0.2201,0.2212,0.2211,0.2211,0.2211,0.2256,0.2257,0.2259,0,0,0,0,0,0,0,0,0,0,0,0,0,0.2063,0.2064,0.2143,0.2144,0.2145,0.22,0.2201,0.2201,0.2212,0.2211,0.2211,0.221,0.2255,0.2257,0.2259,0,0,0,0,0,0,0,0,0,0,0,0,0,0.2105,0.2064,0.2143,0.2158,0.216,0.22,0.2201,0.2201,0.2212,0.2211,0.2211,0.221,0.2255,0.2257,0.2259,0.2284,0,0,0.2266,0.2267,0,0,0,0,0,0,0,0,0.2103,0.2108,0.2155,0.2157,0.2159,0.2199,0.2189,0.2229,0.2212,0.2191,0.2211,0.221,0.2237,0.2241,0.2251,0.2286,0.2288,0.2267,0.2268,0.2269,0.227,0,0,0,0,0,0,0,0.21,0.2106,0.2165,0.2156,0.2158,0.2168,0.2173,0.2196,0.2215,0.2193,0.2194,0.2202,0.2238,0.2249,0.2252,0.2289,0.2266,0.2269,0.227,0.2271,0.2385,0.2387,0,0,0,0,0,0,0.2095,0.2103,0.2163,0.2166,0.213,0.217,0.2175,0.2186,0.2215,0.222,0.2202,0.2202,0.2245,0.225,0.2254,0.2318,0.2269,0.2271,0.2272,0.2384,0.2386,0.2387,0,0,0,0,0,0,0.2093,0.21,0.2161,0.2137,0.2145,0.2171,0.2183,0.2187,0.2199,0.2223,0.2227,0.221,0.2245,0.2251,0.2288,0.2318,0.2272,0.2274,0.2382,0.2384,0.2387,0.2425,0,0,0,0,0,0,0.209,0.2099,0.2102,0.2136,0.2146,0.219,0.2184,0.2189,0.2206,0.2206,0.2231,0.2235,0.2245,0.2285,0.2291,0.2321,0.2276,0.238,0.2383,0.2386,0.2422,0.2428,0.2434,0,0,0,0,0,0.2087,0.2095,0.2102,0.2109,0.2151,0.2191,0.2197,0.2213,0.2207,0.2219,0.224,0.2234,0.2309,0.2288,0.2295,0.2326,0.2378,0.2382,0.2386,0.2419,0.2427,0.2434,0,0,0,0,0,0,0.2058,0.2098,0.2106,0.2124,0.2157,0.2193,0.2205,0.2215,0.2241,0.224,0.2254,0.2261,0.2306,0.2312,0.2289,0.2369,0.2343,0.2348,0.2366,0.2374,0.2381,0.2375,0.2278,0,0,0,0,0,0.2055,0.2072,0.2113,0.2127,0.2145,0.2174,0.219,0.2206,0.2235,0.2245,0.2264,0.2291,0.2328,0.2345,0.2374,0.2416,0.244,0.2441,0.2448,0.2453,0.2454,0.2506,0.2517,0.24,0.24,0.24,0,0,0.2044,0.2071,0.2078,0.2122,0.2147,0.2187,0.2183,0.2214,0.2248,0.2247,0.2293,0.2312,0.2344,0.2395,0.2416,0.2403,0.2508,0.2458,0.2462,0.246,0.2511,0.2522,0.2532,0.2402,0.2402,0.2401,0,0,0.2045,0.2061,0.2082,0.2116,0.2162,0.219,0.2199,0.2243,0.2263,0.2311,0.2324,0.2359,0.2408,0.2441,0.2463,0.2521,0.2538,0.2533,0.2563,0.2613,0.2623,0.2632,0.2712,0.2727,0.2537,0.2537,0.2537,0,0.203,0.2068,0.2093,0.2132,0.2164,0.2193,0.2233,0.2265,0.2315,0.2343,0.233,0.2416,0.2433,0.2507,0.2527,0.2536,0.2575,0.2529,0.2621,0.263,0.2638,0.2717,0.2734,0.2539,0.2539,0.2539,0.2539,0,0.2057,0.209,0.2109,0.217,0.2206,0.2245,0.2299,0.2335,0.2359,0.2393,0.2459,0.2485,0.2537,0.2551,0.2556,0.2631,0.2647,0.2621,0.2597,0.2652,0.2733,0.2749,0.2543,0.2542,0.2541,0.2541,0,0,0.2018,0.2109,0.2116,0.2156,0.2232,0.2267,0.2332,0.2405,0.2448,0.249,0.2552,0.2604,0.2611,0.2636,0.265,0.2686,0.2785,0.2678,0.268,0.2752,0.2928,0.2951,0.2971,0.2773,0.2775,0.2777,0.2974,0,0.2033,0.2107,0.2153,0.2228,0.2273,0.233,0.2389,0.2455,0.2505,0.2572,0.2612,0.267,0.2649,0.2674,0.2712,0.2767,0.2824,0.2735,0.2869,0.2874,0.2882,0.2989,0.2915,0.3084,0.299,0.2992,0.2994,0,0.2046,0.21,0.2169,0.2269,0.2293,0.2337,0.2437,0.2492,0.2591,0.2633,0.2696,0.2731,0.2816,0.2768,0.2902,0.2849,0.2895,0.2925,0.2933,0.2947,0.2926,0.3009,0.3118,0.3047,0.302,0.3018,0.3016,0,0.201,0.2112,0.2167,0.2201,0.2311,0.2351,0.2406,0.2502,0.2566,0.2668,0.273,0.2819,0.2884,0.2942,0.3025,0.297,0.3171,0.3103,0.3175,0.3179,0.3138,0.3133,0.3183,0.3194,0.3193,0.3193,0.3192,0,0.2011,0.2055,0.2151,0.2181,0.2249,0.2326,0.2398,0.2471,0.2584,0.2672,0.2749,0.2849,0.2925,0.3049,0.3086,0.3218,0.3235,0.3216,0.3237,0.3154,0.3149,0.31,0.3051,0.32,0.3199,0.3197,0.3196,0,0.1961,0.2026,0.2091,0.2198,0.223,0.2269,0.2391,0.2446,0.256,0.2681,0.2724,0.2911,0.3077,0.3174,0.3309,0.3319,0.3344,0.3451,0.3371,0.3377,0.3329,0.3285,0.3241,0.314,0.3555,0.3557,0.3558,0,0.1942,0.1969,0.2075,0.2108,0.2152,0.2223,0.2275,0.2408,0.2479,0.2724,0.2788,0.3007,0.3149,0.3396,0.3469,0.3588,0.3445,0.3569,0.3428,0.3354,0.3322,0.3147,0.3049,0.3411,0.3411,0.3412,0.3412,0,0.19,0.1932,0.1986,0.205,0.2104,0.2175,0.2263,0.2327,0.2496,0.2627,0.2831,0.2975,0.3251,0.3371,0.3553,0.3599,0.3407,0.3575,0.351,0.3238,0.304,0.2942,0.3275,0.3413,0.3413,0.3413,0.3413,0.3413,0.1852,0.1873,0.1936,0.1994,0.2052,0.2113,0.2142,0.2261,0.2388,0.2571,0.2777,0.296,0.3228,0.348,0.351,0.3534,0.3439,0.3442,0.3413,0.3256,0.309,0.3449,0.359,0.359,0.3591,0.3592,0.3592,0,0.179,0.1828,0.1879,0.1939,0.1965,0.2031,0.2124,0.2146,0.225,0.2472,0.2639,0.2939,0.3133,0.3309,0.3471,0.3387,0.3182,0.3308,0.303,0.2951,0.331,0.3234,0.3288,0.3288,0.3288,0.3288,0.3289,0.3289,0.1758,0.1782,0.1818,0.1839,0.1875,0.1885,0.1919,0.198,0.2106,0.2299,0.247,0.2666,0.3045,0.3348,0.3364,0.3279,0.299,0.2902,0.2836,0.3096,0.3103,0.311,0.3027,0.3037,0.3036,0.2348,0.2343,0.2339]},{"header":{"parameterUnit":"m.s-1","parameterCategory":2,"la1":30.2991,"la2":30.254,"lo1":-89.0895,"lo2":-89.0444,"dy":0.0017,"dx":0.0017,"nx":28,"ny":28,"refTime":"2025-04-26T21:00:00:Z","depth":"0","parameterNumber":3,"parameterNumberName":"V-component_of_CURRENTS"},"data":[0,0,0,0,0,0,0,0,0,0,0,0,0,0,0,0,0,0,0,0,0,0,0,0,0,0,0,0,0,0,0,0,0,0,0,0,0,0,0,0,0,0,0,0,0,0,0,0,0,0,0,0,0,0,0,0,0,0,-0.01,-0.0101,0,-0.0156,-0.0157,-0.0157,-0.0206,-0.0207,-0.0207,-0.0208,-0.0306,-0.0308,-0.0311,0,0,0,0,0,0,0,0,0,0,0,0,0,-0.007,-0.007,-0.01,-0.0101,-0.0102,-0.0156,-0.0157,-0.0157,-0.0206,-0.0207,-0.0207,-0.0208,-0.0306,-0.0308,-0.0311,0,0,0,0,0,0,0,0,0,0,0,0,0,-0.01,-0.007,-0.01,-0.0132,-0.0135,-0.0156,-0.0157,-0.0158,-0.0206,-0.0207,-0.0207,-0.0208,-0.0305,-0.0308,-0.0311,-0.0316,0,0,-0.0321,-0.0322,0,0,0,0,0,0,0,0,-0.0098,-0.0101,-0.0127,-0.013,-0.0133,-0.0174,-0.0182,-0.0213,-0.0206,-0.018,-0.0208,-0.0208,-0.0265,-0.0272,-0.0281,-0.032,-0.0325,-0.0321,-0.0323,-0.0325,-0.0326,0,0,0,0,0,0,0,-0.0096,-0.0099,-0.0123,-0.0127,-0.0131,-0.0155,-0.016,-0.0188,-0.0219,-0.0182,-0.0185,-0.019,-0.0268,-0.0277,-0.0284,-0.0326,-0.0321,-0.0324,-0.0326,-0.0327,-0.0394,-0.0394,0,0,0,0,0,0,-0.0085,-0.0097,-0.0121,-0.0125,-0.0117,-0.0154,-0.016,-0.0161,-0.0218,-0.0226,-0.019,-0.0193,-0.0272,-0.028,-0.0287,-0.0301,-0.0325,-0.0328,-0.0329,-0.0394,-0.0394,-0.0394,0,0,0,0,0,0,-0.0085,-0.0087,-0.0119,-0.0112,-0.0118,-0.0154,-0.0155,-0.0162,-0.0171,-0.0223,-0.0233,-0.0192,-0.0272,-0.0283,-0.0307,-0.0305,-0.0329,-0.0332,-0.0394,-0.0394,-0.0394,-0.0325,0,0,0,0,0,0,-0.0083,-0.0086,-0.008,-0.0111,-0.0118,-0.0122,-0.0154,-0.0162,-0.0173,-0.0177,-0.0228,-0.0238,-0.0274,-0.0302,-0.031,-0.031,-0.0335,-0.0394,-0.0394,-0.0394,-0.0328,-0.0323,-0.0319,0,0,0,0,0,-0.0082,-0.0066,-0.0079,-0.0082,-0.0109,-0.0121,-0.0126,-0.0156,-0.0172,-0.0169,-0.0205,-0.0237,-0.0306,-0.0304,-0.0314,-0.0315,-0.0395,-0.0394,-0.0394,-0.033,-0.0324,-0.0319,0,0,0,0,0,0,-0.0041,-0.007,-0.0086,-0.0077,-0.0095,-0.0129,-0.0128,-0.0149,-0.0174,-0.0179,-0.023,-0.0242,-0.0264,-0.0296,-0.0292,-0.0334,-0.0358,-0.0359,-0.0306,-0.03,-0.0296,-0.0285,-0.0337,0,0,0,0,0,-0.0031,-0.0033,-0.0061,-0.0053,-0.006,-0.0093,-0.0101,-0.012,-0.0148,-0.0159,-0.0195,-0.0235,-0.027,-0.0289,-0.0322,-0.0339,-0.0367,-0.0349,-0.0344,-0.034,-0.0338,-0.0388,-0.0387,-0.0392,-0.0392,-0.0392,0,0,-0.0014,-0.0029,-0.003,-0.0046,-0.0063,-0.0062,-0.01,-0.0105,-0.0106,-0.0166,-0.0176,-0.0217,-0.027,-0.0292,-0.0306,-0.0319,-0.0346,-0.0339,-0.0335,-0.0336,-0.0387,-0.0387,-0.0386,-0.0392,-0.0392,-0.0392,0,0,0.0022,0.0008,0.0017,0.0007,-0.0014,-0.0033,-0.0031,-0.0061,-0.0076,-0.009,-0.0138,-0.0175,-0.0219,-0.0261,-0.0288,-0.0277,-0.0319,-0.0289,-0.0259,-0.0306,-0.0306,-0.0307,-0.031,-0.0312,-0.0289,-0.0288,-0.0288,0,0.0045,0.0053,0.0021,0.0029,0.0028,-0.0015,0.0001,-0.002,-0.0053,-0.0066,-0.0083,-0.0161,-0.0206,-0.0246,-0.0246,-0.0267,-0.0287,-0.0273,-0.03,-0.0301,-0.0303,-0.0307,-0.0309,-0.0285,-0.0286,-0.0286,-0.0286,0,0.0083,0.0092,0.01,0.0093,0.0088,0.0096,0.0065,0.0056,0.003,0.0002,-0.0037,-0.0099,-0.0149,-0.0172,-0.0207,-0.0243,-0.0247,-0.0285,-0.0311,-0.0298,-0.0303,-0.0306,-0.028,-0.0282,-0.0283,-0.0283,0,0,0.013,0.0127,0.013,0.0143,0.0123,0.0129,0.0124,0.0107,0.0109,0.0057,0.0051,-0.0029,-0.0072,-0.0106,-0.0162,-0.0208,-0.023,-0.0246,-0.025,-0.0242,-0.0302,-0.0276,-0.0278,-0.0275,-0.0276,-0.0277,-0.0289,0,0.0171,0.0205,0.0188,0.0225,0.0244,0.0208,0.0211,0.0187,0.0158,0.0142,0.0058,0.003,-0.0045,-0.0063,-0.0125,-0.02,-0.0242,-0.0221,-0.0323,-0.0325,-0.0299,-0.0283,-0.028,-0.0289,-0.0293,-0.0294,-0.0294,0,0.0215,0.0232,0.0274,0.0296,0.0301,0.0312,0.0312,0.0308,0.0261,0.0238,0.0178,0.0122,0.0049,-0.0015,-0.0146,-0.0127,-0.021,-0.0273,-0.0276,-0.0282,-0.0307,-0.0311,-0.0297,-0.0475,-0.03,-0.03,-0.0299,0,0.0267,0.0298,0.0336,0.0342,0.0352,0.0363,0.0362,0.0333,0.0349,0.0296,0.0309,0.0197,0.0176,0.0033,-0.0089,-0.0123,-0.0213,-0.028,-0.0333,-0.033,-0.0364,-0.0362,-0.0531,-0.038,-0.038,-0.038,-0.038,0,0.0319,0.0353,0.0364,0.0386,0.0437,0.0418,0.0462,0.044,0.0435,0.0483,0.0361,0.0392,0.0185,0.0115,-0.0042,-0.017,-0.018,-0.0317,-0.0339,-0.0335,-0.0331,-0.0517,-0.0625,-0.0381,-0.038,-0.038,-0.038,0,0.0372,0.0376,0.0427,0.045,0.0464,0.0497,0.0543,0.0577,0.0555,0.0618,0.0615,0.055,0.0464,0.0274,0.0086,-0.007,-0.0319,-0.0269,-0.0221,-0.0237,-0.0478,-0.058,-0.0757,-0.0833,-0.0347,-0.0347,-0.0347,0,0.0401,0.0431,0.0481,0.052,0.0534,0.0584,0.0626,0.0629,0.0687,0.0741,0.0793,0.0739,0.0739,0.048,0.0184,-0.0073,-0.0266,-0.0244,-0.0333,-0.048,-0.0612,-0.0687,-0.0744,-0.0339,-0.0338,-0.0338,-0.0338,0,0.0461,0.0475,0.0518,0.0599,0.0654,0.0729,0.0799,0.0873,0.0913,0.0989,0.1099,0.1109,0.0869,0.0628,0.0268,0.0062,-0.0375,-0.0244,-0.0436,-0.0646,-0.0704,-0.0788,-0.0311,-0.0335,-0.0335,-0.0335,-0.0335,-0.0335,0.0508,0.0553,0.0612,0.0693,0.0764,0.0877,0.0973,0.1077,0.1214,0.1367,0.1355,0.1409,0.1016,0.0525,0.0228,-0.0329,-0.0352,-0.0518,-0.0632,-0.0694,-0.0777,-0.0259,-0.0286,-0.0287,-0.0287,-0.0287,-0.0287,0,0.0572,0.0625,0.0706,0.0812,0.0914,0.0933,0.1098,0.1221,0.1427,0.1553,0.1662,0.1498,0.1015,0.049,-0.0255,-0.0648,-0.0818,-0.0872,-0.1019,-0.1062,-0.0638,-0.0648,-0.0707,-0.0707,-0.0707,-0.0706,-0.0706,-0.0706,0.0611,0.0701,0.0746,0.0927,0.101,0.118,0.1293,0.1478,0.1612,0.1797,0.1829,0.1811,0.14,0.0068,-0.083,-0.1047,-0.1343,-0.1402,-0.1535,-0.1295,-0.1272,-0.125,-0.1286,-0.1478,-0.1479,-0.1913,-0.1918,-0.1921]}],[{"header":{"parameterUnit":"m.s-1","parameterCategory":2,"la1":30.2991,"la2":30.254,"lo1":-89.0895,"lo2":-89.0444,"dy":0.0017,"dx":0.0017,"nx":28,"ny":28,"refTime":"2025-04-26T21:00:00:Z","depth":"2","parameterNumber":2,"parameterNumberName":"U-component_of_CURRENTS"},"data":[0,0,0,0,0,0,0,0,0,0,0,0,0,0,0,0,0,0,0,0,0,0,0,0,0,0,0,0,0,0,0,0,0,0,0,0,0,0,0,0,0,0,0,0,0,0,0,0,0,0,0,0,0,0,0,0,0,0,0.2005,0.2005,0,0.206,0.2061,0.2061,0.2075,0.2075,0.2074,0.2074,0.2119,0.2121,0.2122,0,0,0,0,0,0,0,0,0,0,0,0,0,0.1931,0.1933,0.2005,0.2005,0.2006,0.206,0.2061,0.2061,0.2075,0.2075,0.2074,0.2074,0.2119,0.2121,0.2122,0,0,0,0,0,0,0,0,0,0,0,0,0,0.1971,0.1933,0.2004,0.202,0.2023,0.206,0.2061,0.2062,0.2075,0.2075,0.2074,0.2074,0.2118,0.212,0.2123,0.2143,0,0,0.2129,0.213,0,0,0,0,0,0,0,0,0.1969,0.1974,0.2017,0.2019,0.2022,0.2061,0.2052,0.2089,0.2075,0.2054,0.2074,0.2074,0.21,0.2104,0.2113,0.2145,0.2147,0.2129,0.2131,0.2131,0.2132,0,0,0,0,0,0,0,0.1966,0.1972,0.2025,0.2018,0.2021,0.2032,0.2037,0.2059,0.2077,0.2056,0.2057,0.2065,0.2101,0.2111,0.2114,0.2148,0.2129,0.2131,0.2132,0.2133,0.2234,0.2236,0,0,0,0,0,0,0.1962,0.1969,0.2024,0.2027,0.1996,0.2034,0.2039,0.2048,0.2077,0.2082,0.2066,0.2066,0.2108,0.2112,0.2116,0.2183,0.2131,0.2133,0.2135,0.2233,0.2235,0.2236,0,0,0,0,0,0,0.196,0.1966,0.2021,0.2,0.2008,0.2035,0.2045,0.2049,0.2066,0.2085,0.2089,0.2078,0.2108,0.2113,0.2144,0.2183,0.2134,0.2136,0.2231,0.2234,0.2236,0.2291,0,0,0,0,0,0,0.1957,0.1965,0.1971,0.2,0.2009,0.205,0.2046,0.2051,0.2072,0.2073,0.2098,0.2101,0.2108,0.2141,0.2146,0.2185,0.2138,0.223,0.2232,0.2235,0.2287,0.2294,0.2301,0,0,0,0,0,0.1955,0.1965,0.1971,0.1978,0.2016,0.2051,0.2057,0.2074,0.2073,0.2086,0.2102,0.21,0.2162,0.2144,0.215,0.219,0.2228,0.2232,0.2235,0.2284,0.2293,0.2301,0,0,0,0,0,0,0.1933,0.1968,0.1975,0.1994,0.2023,0.2054,0.2069,0.2079,0.2103,0.2104,0.2115,0.2121,0.2163,0.2167,0.2147,0.2227,0.2197,0.2201,0.2232,0.2241,0.2247,0.2249,0.214,0,0,0,0,0,0.1933,0.1952,0.1984,0.2001,0.2016,0.2043,0.206,0.2074,0.2098,0.2108,0.2125,0.2149,0.2181,0.2201,0.2221,0.2265,0.228,0.2296,0.2303,0.2308,0.2314,0.2372,0.2384,0.2247,0.2247,0.2247,0,0,0.1927,0.1951,0.196,0.1999,0.2022,0.2052,0.2052,0.2083,0.2113,0.211,0.2152,0.2169,0.2195,0.2244,0.2265,0.2254,0.2357,0.2312,0.2317,0.232,0.2376,0.239,0.2402,0.2249,0.2248,0.2248,0,0,0.1933,0.1951,0.1971,0.1999,0.2039,0.2062,0.2072,0.2109,0.213,0.2169,0.2181,0.2226,0.2259,0.2301,0.2323,0.2381,0.2385,0.2384,0.243,0.2486,0.2498,0.2509,0.2551,0.2565,0.2394,0.2394,0.2395,0,0.1925,0.1958,0.1982,0.2013,0.204,0.2067,0.2098,0.2129,0.2171,0.2203,0.2186,0.2272,0.2294,0.2377,0.2397,0.2401,0.2419,0.2397,0.2496,0.2507,0.2516,0.2557,0.2572,0.2397,0.2397,0.2397,0.2397,0,0.1949,0.1978,0.1995,0.2044,0.2075,0.2107,0.2153,0.2191,0.2215,0.2248,0.232,0.2351,0.2409,0.2426,0.2429,0.252,0.2506,0.2492,0.2475,0.2534,0.2573,0.2587,0.2402,0.2401,0.24,0.2399,0,0,0.192,0.1996,0.2001,0.2034,0.2095,0.2125,0.2187,0.2256,0.2309,0.2346,0.2418,0.2479,0.2499,0.2525,0.2546,0.2592,0.2684,0.2572,0.2574,0.2614,0.28,0.2767,0.2779,0.2683,0.2686,0.2688,0.28,0,0.1932,0.1991,0.2029,0.2089,0.2125,0.218,0.2237,0.2304,0.2358,0.2434,0.2489,0.2551,0.2538,0.2572,0.2624,0.267,0.2723,0.2654,0.2736,0.2739,0.2703,0.2796,0.2594,0.2675,0.2814,0.2816,0.2818,0,0.1939,0.1984,0.2039,0.2128,0.2149,0.219,0.2295,0.235,0.2463,0.2508,0.2587,0.2622,0.272,0.2682,0.2803,0.2757,0.2786,0.2807,0.2812,0.2771,0.2733,0.2638,0.2695,0.2842,0.284,0.2838,0.2836,0,0.1908,0.1991,0.2038,0.2065,0.2164,0.2209,0.2266,0.2373,0.244,0.2558,0.2621,0.2719,0.2791,0.2837,0.2894,0.2855,0.3008,0.2964,0.2963,0.296,0.2801,0.2779,0.3048,0.3047,0.3047,0.3047,0.3047,0,0.1903,0.1941,0.2028,0.2053,0.212,0.2195,0.2277,0.2356,0.248,0.2562,0.2654,0.2739,0.2832,0.2925,0.2941,0.3013,0.3058,0.2995,0.3,0.2814,0.2794,0.2938,0.2923,0.3051,0.305,0.3049,0.3049,0,0.1856,0.1914,0.197,0.2071,0.2104,0.2148,0.2271,0.2337,0.2461,0.2576,0.2617,0.2794,0.2911,0.2992,0.3097,0.3091,0.3141,0.3148,0.2921,0.2897,0.3038,0.3025,0.3161,0.3161,0.3161,0.3161,0.3161,0,0.1837,0.1862,0.1957,0.1989,0.2033,0.211,0.2166,0.2304,0.238,0.2593,0.2649,0.2825,0.292,0.3087,0.3116,0.3168,0.3182,0.2996,0.2888,0.3065,0.3057,0.3043,0.3031,0.2698,0.2694,0.2691,0.2688,0,0.1797,0.1829,0.1874,0.1939,0.1996,0.2059,0.2155,0.2212,0.2374,0.2481,0.2635,0.2732,0.2924,0.2916,0.3015,0.3003,0.2968,0.2936,0.3208,0.27,0.2637,0.2625,0.2627,0.2661,0.2664,0.2666,0.2667,0.2668,0.1756,0.1772,0.1832,0.1887,0.1944,0.1996,0.2023,0.213,0.223,0.2362,0.2518,0.2598,0.2704,0.2759,0.2717,0.2703,0.2885,0.2755,0.2761,0.277,0.2697,0.2638,0.2647,0.265,0.2652,0.2654,0.2656,0,0.1698,0.173,0.178,0.1835,0.186,0.193,0.2005,0.2013,0.2072,0.2215,0.2317,0.223,0.2284,0.2371,0.2329,0.2369,0.2301,0.2264,0.2149,0.2182,0.221,0.2101,0.1896,0.1893,0.189,0.1887,0,0,0.167,0.1686,0.1713,0.1734,0.1778,0.1784,0.1806,0.1827,0.19,0.1916,0.1956,0.2167,0.2315,0.2053,0.2064,0.1966,0.2037,0.1897,0.2522,0.242,0.2443,0.2532,0.2409,0,0,0,0,0]},{"header":{"parameterUnit":"m.s-1","parameterCategory":2,"la1":30.2991,"la2":30.254,"lo1":-89.0895,"lo2":-89.0444,"dy":0.0017,"dx":0.0017,"nx":28,"ny":28,"refTime":"2025-04-26T21:00:00:Z","depth":"2","parameterNumber":3,"parameterNumberName":"V-component_of_CURRENTS"},"data":[0,0,0,0,0,0,0,0,0,0,0,0,0,0,0,0,0,0,0,0,0,0,0,0,0,0,0,0,0,0,0,0,0,0,0,0,0,0,0,0,0,0,0,0,0,0,0,0,0,0,0,0,0,0,0,0,0,0,-0.0219,-0.0219,0,-0.0268,-0.0268,-0.0269,-0.0309,-0.0309,-0.031,-0.031,-0.0403,-0.0405,-0.0407,0,0,0,0,0,0,0,0,0,0,0,0,0,-0.0181,-0.0182,-0.0219,-0.0219,-0.022,-0.0268,-0.0268,-0.0269,-0.0309,-0.0309,-0.031,-0.031,-0.0402,-0.0405,-0.0407,0,0,0,0,0,0,0,0,0,0,0,0,0,-0.0211,-0.0182,-0.0219,-0.0245,-0.0248,-0.0268,-0.0268,-0.0269,-0.0309,-0.0309,-0.031,-0.031,-0.0401,-0.0405,-0.0408,-0.0417,0,0,-0.0418,-0.0419,0,0,0,0,0,0,0,0,-0.0209,-0.0213,-0.0241,-0.0243,-0.0246,-0.0282,-0.0289,-0.0321,-0.0309,-0.0286,-0.031,-0.031,-0.0366,-0.0372,-0.038,-0.0422,-0.0426,-0.0418,-0.042,-0.0421,-0.0422,0,0,0,0,0,0,0,-0.0207,-0.0211,-0.0239,-0.0241,-0.0245,-0.0262,-0.0266,-0.0295,-0.0324,-0.0288,-0.0291,-0.0295,-0.0368,-0.0377,-0.0383,-0.0427,-0.0418,-0.0421,-0.0423,-0.0424,-0.0487,-0.0487,0,0,0,0,0,0,-0.0198,-0.0209,-0.0237,-0.024,-0.0228,-0.0262,-0.0267,-0.0271,-0.0323,-0.0331,-0.0295,-0.0297,-0.0371,-0.0379,-0.0386,-0.0398,-0.0421,-0.0424,-0.0426,-0.0487,-0.0487,-0.0487,0,0,0,0,0,0,-0.0197,-0.02,-0.0235,-0.0225,-0.0231,-0.0262,-0.0266,-0.0271,-0.028,-0.0327,-0.0336,-0.0297,-0.0372,-0.0382,-0.0406,-0.0402,-0.0426,-0.0429,-0.0488,-0.0487,-0.0487,-0.0423,0,0,0,0,0,0,-0.0196,-0.0199,-0.0197,-0.0224,-0.0231,-0.0239,-0.0265,-0.0272,-0.0281,-0.0285,-0.0332,-0.0341,-0.0373,-0.04,-0.0409,-0.0407,-0.0431,-0.0488,-0.0487,-0.0487,-0.0426,-0.0421,-0.0417,0,0,0,0,0,-0.0194,-0.0184,-0.0196,-0.02,-0.0227,-0.0238,-0.0243,-0.0267,-0.0281,-0.0278,-0.031,-0.034,-0.0404,-0.0403,-0.0413,-0.0412,-0.0488,-0.0488,-0.0487,-0.0428,-0.0422,-0.0417,0,0,0,0,0,0,-0.0163,-0.0188,-0.0202,-0.02,-0.0215,-0.0245,-0.0244,-0.0261,-0.0284,-0.0289,-0.0335,-0.0346,-0.0366,-0.0396,-0.0394,-0.0429,-0.0452,-0.0453,-0.0403,-0.0398,-0.0394,-0.0376,-0.0434,0,0,0,0,0,-0.0155,-0.0157,-0.0183,-0.018,-0.0186,-0.0214,-0.0221,-0.0237,-0.0262,-0.0272,-0.0305,-0.0341,-0.0371,-0.0389,-0.0419,-0.0436,-0.0463,-0.0443,-0.0439,-0.0435,-0.0427,-0.0472,-0.047,-0.0485,-0.0485,-0.0485,0,0,-0.0142,-0.0156,-0.0157,-0.0174,-0.0189,-0.0186,-0.022,-0.0225,-0.0224,-0.0279,-0.0287,-0.0325,-0.0372,-0.0391,-0.0403,-0.0415,-0.044,-0.0434,-0.043,-0.0424,-0.0471,-0.047,-0.0469,-0.0484,-0.0485,-0.0485,0,0,-0.0113,-0.0129,-0.012,-0.0129,-0.0146,-0.0162,-0.016,-0.0186,-0.0199,-0.0212,-0.0253,-0.0285,-0.0327,-0.0362,-0.0385,-0.0373,-0.0414,-0.0384,-0.0349,-0.0393,-0.0392,-0.0391,-0.0404,-0.0405,-0.0384,-0.0383,-0.0383,0,-0.0095,-0.0089,-0.0117,-0.0109,-0.0109,-0.0147,-0.0131,-0.0148,-0.0178,-0.0185,-0.0205,-0.027,-0.0314,-0.0341,-0.034,-0.0363,-0.0383,-0.0365,-0.0386,-0.0386,-0.0387,-0.04,-0.0403,-0.038,-0.0381,-0.0381,-0.0381,0,-0.0061,-0.0055,-0.0048,-0.0051,-0.0053,-0.0047,-0.0071,-0.0077,-0.01,-0.0122,-0.015,-0.021,-0.0249,-0.0272,-0.0304,-0.0329,-0.0338,-0.0373,-0.0397,-0.0382,-0.0396,-0.04,-0.0376,-0.0377,-0.0378,-0.0379,0,0,-0.0023,-0.0023,-0.002,-0.0006,-0.0022,-0.0015,-0.0014,-0.0022,-0.0015,-0.0061,-0.006,-0.0129,-0.0166,-0.0195,-0.0245,-0.0287,-0.0311,-0.0326,-0.033,-0.0331,-0.0382,-0.0387,-0.0391,-0.0351,-0.0351,-0.0352,-0.0383,0,0.0014,0.0047,0.0033,0.0071,0.0088,0.0061,0.007,0.0056,0.0033,0.0024,-0.0048,-0.007,-0.0135,-0.0152,-0.0206,-0.0282,-0.032,-0.0297,-0.0403,-0.0405,-0.0407,-0.0396,-0.0366,-0.0391,-0.0387,-0.0387,-0.0388,0,0.0054,0.0071,0.0111,0.0138,0.0144,0.0157,0.017,0.0172,0.0139,0.0119,0.0075,0.0026,-0.0037,-0.0098,-0.0219,-0.02,-0.0283,-0.0347,-0.0351,-0.038,-0.0417,-0.0411,-0.0398,-0.0394,-0.0394,-0.0393,-0.0393,0,0.0101,0.0131,0.0168,0.0175,0.0191,0.0207,0.0213,0.0199,0.0218,0.0178,0.0188,0.0098,0.0072,-0.0054,-0.0184,-0.0203,-0.0311,-0.0359,-0.0438,-0.0438,-0.0445,-0.0445,-0.0448,-0.0448,-0.0448,-0.0448,-0.0448,0,0.0147,0.0179,0.0193,0.0214,0.0268,0.0257,0.0304,0.0294,0.0297,0.0334,0.024,0.0254,0.008,0.0001,-0.0145,-0.0286,-0.0284,-0.0422,-0.0451,-0.042,-0.0417,-0.0454,-0.0454,-0.0449,-0.0449,-0.0449,-0.0449,0,0.0192,0.0197,0.0246,0.0274,0.0291,0.0326,0.0375,0.041,0.0397,0.0444,0.0441,0.0381,0.0277,0.0107,-0.0076,-0.0213,-0.0366,-0.0421,-0.0354,-0.0374,-0.0472,-0.0468,-0.0512,-0.0512,-0.0513,-0.0513,-0.0513,0,0.0217,0.0244,0.0294,0.0332,0.0347,0.0399,0.0441,0.0453,0.0506,0.0531,0.0571,0.0497,0.0459,0.0199,-0.0054,-0.0294,-0.0342,-0.0422,-0.0472,-0.0457,-0.0481,-0.0476,-0.0472,-0.0446,-0.0446,-0.0446,-0.0446,0,0.0268,0.028,0.032,0.0397,0.0451,0.052,0.0588,0.065,0.0679,0.072,0.0773,0.0744,0.0512,0.0284,-0.0041,-0.021,-0.0386,-0.0426,-0.0433,-0.0436,-0.0399,-0.0421,-0.0419,-0.0444,-0.0444,-0.0444,-0.0444,-0.0444,0.0308,0.0343,0.0396,0.0472,0.0541,0.0637,0.0708,0.0791,0.0883,0.0959,0.093,0.0898,0.0629,0.0228,-0.0063,-0.0362,-0.0368,-0.0478,-0.0477,-0.0477,-0.0465,-0.0432,-0.0478,-0.0478,-0.0479,-0.0479,-0.0479,0,0.0358,0.0399,0.0472,0.0562,0.0648,0.068,0.0809,0.0879,0.0998,0.1068,0.1098,0.0865,0.0604,0.0299,-0.0143,-0.042,-0.0446,-0.0498,-0.0474,-0.0473,-0.0474,-0.0461,-0.0473,-0.0474,-0.0475,-0.0475,0,0,0.0387,0.0457,0.0491,0.0636,0.0713,0.0832,0.0914,0.1016,0.1095,0.1154,0.1154,0.1101,0.0725,0.041,0.0032,-0.0217,-0.028,-0.0264,-0.024,-0.0167,-0.0164,-0.0435,-0.0412,0,0,0,0,0]}],[{"header":{"parameterUnit":"m.s-1","parameterCategory":2,"la1":30.2991,"la2":30.254,"lo1":-89.0895,"lo2":-89.0444,"dy":0.0017,"dx":0.0017,"nx":28,"ny":28,"refTime":"2025-04-26T21:00:00:Z","depth":"4","parameterNumber":2,"parameterNumberName":"U-component_of_CURRENTS"},"data":[0,0,0,0,0,0,0,0,0,0,0,0,0,0,0,0,0,0,0,0,0,0,0,0,0,0,0,0,0,0,0,0,0,0,0,0,0,0,0,0,0,0,0,0,0,0,0,0,0,0,0,0,0,0,0,0,0,0,0.136,0.1361,0,0.1434,0.1435,0.1435,0.1486,0.1487,0.1487,0.1488,0.1523,0.1523,0.1524,0,0,0,0,0,0,0,0,0,0,0,0,0,0.1247,0.1249,0.136,0.1361,0.1362,0.1434,0.1435,0.1436,0.1486,0.1487,0.1487,0.1488,0.1523,0.1523,0.1524,0,0,0,0,0,0,0,0,0,0,0,0,0,0.1304,0.1249,0.1359,0.1397,0.1401,0.1434,0.1435,0.1436,0.1486,0.1487,0.1487,0.1488,0.1523,0.1523,0.1524,0.1511,0,0,0.1526,0.1526,0,0,0,0,0,0,0,0,0.1301,0.1308,0.1391,0.1395,0.14,0.1453,0.1408,0.146,0.1486,0.1452,0.1488,0.1489,0.1497,0.15,0.1509,0.1513,0.1514,0.1526,0.1526,0.1526,0.1527,0,0,0,0,0,0,0,0.1297,0.1305,0.1387,0.1392,0.1397,0.1406,0.1415,0.1418,0.1466,0.1455,0.1459,0.147,0.1499,0.1509,0.151,0.1515,0.1526,0.1526,0.1527,0.1527,0.1592,0.1593,0,0,0,0,0,0,0.1292,0.1301,0.1385,0.1389,0.1354,0.1407,0.1417,0.1434,0.1467,0.1474,0.147,0.1472,0.1507,0.151,0.1512,0.1571,0.1526,0.1527,0.1527,0.1591,0.1592,0.1594,0,0,0,0,0,0,0.1289,0.1299,0.1382,0.1348,0.136,0.1409,0.1426,0.1435,0.1475,0.1479,0.1485,0.1505,0.1508,0.1511,0.1544,0.157,0.1527,0.1528,0.1589,0.1591,0.1593,0.1642,0,0,0,0,0,0,0.1286,0.1297,0.1321,0.1348,0.1362,0.1418,0.1426,0.1436,0.1479,0.1485,0.1511,0.1513,0.1509,0.1543,0.1545,0.157,0.1528,0.1588,0.159,0.1593,0.1639,0.1646,0.1652,0,0,0,0,0,0.1281,0.1306,0.1321,0.1332,0.1388,0.142,0.1428,0.1463,0.1481,0.1501,0.1524,0.1514,0.156,0.1545,0.1546,0.1572,0.1586,0.1589,0.1592,0.1636,0.1645,0.1652,0,0,0,0,0,0,0.1272,0.1314,0.1332,0.137,0.1401,0.1429,0.1458,0.1479,0.1514,0.1527,0.1529,0.1533,0.1571,0.1566,0.1549,0.16,0.1572,0.1576,0.1605,0.1613,0.1619,0.1614,0.1529,0,0,0,0,0,0.1279,0.1311,0.1345,0.138,0.1398,0.1433,0.1457,0.148,0.1508,0.1527,0.1545,0.1564,0.1579,0.1594,0.1604,0.163,0.1636,0.1649,0.1655,0.166,0.1658,0.1699,0.1709,0.1604,0.1604,0.1604,0,0,0.1287,0.1315,0.1335,0.1381,0.141,0.1436,0.145,0.1494,0.1521,0.1522,0.1572,0.1587,0.1592,0.1624,0.164,0.1627,0.1697,0.1664,0.1669,0.1663,0.1704,0.1714,0.1723,0.1606,0.1606,0.1605,0,0,0.1303,0.1343,0.1369,0.1396,0.1445,0.1462,0.148,0.1523,0.1553,0.1594,0.1604,0.1637,0.1663,0.1674,0.168,0.1726,0.1728,0.1736,0.1765,0.1806,0.1815,0.1823,0.1855,0.1865,0.1741,0.1741,0.1741,0,0.131,0.1348,0.1382,0.141,0.1436,0.1475,0.1501,0.1532,0.1583,0.1605,0.1618,0.1675,0.1683,0.1717,0.1738,0.174,0.1764,0.1735,0.1814,0.1822,0.1829,0.186,0.1871,0.1744,0.1743,0.1743,0.1743,0,0.1335,0.1374,0.1393,0.1439,0.1469,0.1503,0.1541,0.158,0.1619,0.1645,0.1702,0.1724,0.1758,0.177,0.1769,0.1825,0.1827,0.1817,0.1793,0.1843,0.1872,0.1883,0.1748,0.1747,0.1746,0.1745,0,0,0.132,0.1395,0.1403,0.1428,0.1489,0.151,0.156,0.1605,0.1642,0.1696,0.1746,0.1783,0.1809,0.1817,0.1831,0.1866,0.1943,0.1871,0.1872,0.19,0.2041,0.1944,0.1945,0.1957,0.1958,0.196,0.2045,0,0.1328,0.1378,0.1416,0.1463,0.1489,0.1538,0.1578,0.1628,0.1675,0.1733,0.1774,0.1829,0.1823,0.186,0.1893,0.1932,0.1971,0.1921,0.1991,0.1992,0.1897,0.1954,0.1966,0.2052,0.2055,0.2056,0.2057,0,0.1329,0.1365,0.1412,0.1475,0.1493,0.1527,0.1596,0.1641,0.1721,0.1763,0.1823,0.1865,0.1934,0.1926,0.2013,0.1988,0.202,0.2043,0.2046,0.1941,0.1913,0.1991,0.2076,0.2074,0.2073,0.2072,0.2071,0,0.1287,0.1357,0.1394,0.1418,0.1495,0.153,0.1578,0.1653,0.1702,0.1799,0.1853,0.1921,0.1989,0.2033,0.2093,0.2068,0.2187,0.2153,0.2092,0.2086,0.2125,0.2116,0.2215,0.2215,0.2215,0.2215,0.2214,0,0.1264,0.1296,0.1383,0.1402,0.1449,0.1517,0.1577,0.1634,0.1731,0.179,0.1877,0.1935,0.2026,0.2103,0.2126,0.2146,0.2219,0.2104,0.2103,0.2145,0.2137,0.2133,0.2122,0.2218,0.2217,0.2216,0.2216,0,0.1208,0.1269,0.1312,0.14,0.1432,0.1468,0.1577,0.1617,0.1724,0.1811,0.1857,0.1982,0.2078,0.2155,0.2243,0.2189,0.2217,0.2209,0.2267,0.2267,0.2076,0.2068,0.2127,0.2124,0.2122,0.212,0.2118,0,0.1182,0.1203,0.1298,0.1327,0.1371,0.1441,0.1487,0.1599,0.165,0.182,0.1857,0.2004,0.2074,0.2118,0.2197,0.2241,0.222,0.221,0.2113,0.2075,0.2069,0.2064,0.2058,0.2115,0.2114,0.2113,0.2113,0,0.1126,0.1172,0.1208,0.1269,0.1321,0.137,0.1455,0.1483,0.1619,0.1736,0.1819,0.1883,0.1993,0.2054,0.2121,0.2139,0.2194,0.2186,0.2189,0.2097,0.2061,0.2056,0.2053,0.2105,0.2106,0.2107,0.2107,0,0.1085,0.1093,0.1152,0.1193,0.1256,0.1284,0.1335,0.1407,0.1475,0.1665,0.169,0.1845,0.1971,0.2005,0.206,0.2082,0.2039,0.1953,0.1968,0.1977,0.189,0.182,0.1797,0,0,0,0,0,0.1036,0.1039,0.1073,0.1109,0.1169,0.1211,0.1307,0.1365,0.15,0.1521,0.1603,0.1698,0.1786,0.1866,0.186,0.1997,0.2045,0.1981,0.1953,0.2061,0.207,0.1982,0,0,0,0,0,0,0.1001,0.103,0.1039,0.1032,0.105,0.1104,0.1161,0.1253,0.1276,0.1424,0.1485,0.1601,0.1717,0.1781,0.1831,0.1856,0.1805,0.2081,0.2077,0.2056,0.2064,0.2072,0.1984,0,0,0,0,0]},{"header":{"parameterUnit":"m.s-1","parameterCategory":2,"la1":30.2991,"la2":30.254,"lo1":-89.0895,"lo2":-89.0444,"dy":0.0017,"dx":0.0017,"nx":28,"ny":28,"refTime":"2025-04-26T21:00:00:Z","depth":"4","parameterNumber":3,"parameterNumberName":"V-component_of_CURRENTS"},"data":[0,0,0,0,0,0,0,0,0,0,0,0,0,0,0,0,0,0,0,0,0,0,0,0,0,0,0,0,0,0,0,0,0,0,0,0,0,0,0,0,0,0,0,0,0,0,0,0,0,0,0,0,0,0,0,0,0,0,-0.0147,-0.0147,0,-0.0187,-0.0187,-0.0188,-0.0219,-0.022,-0.022,-0.022,-0.0274,-0.0275,-0.0276,0,0,0,0,0,0,0,0,0,0,0,0,0,-0.0099,-0.01,-0.0147,-0.0147,-0.0148,-0.0187,-0.0187,-0.0188,-0.0219,-0.022,-0.022,-0.022,-0.0274,-0.0275,-0.0277,0,0,0,0,0,0,0,0,0,0,0,0,0,-0.0128,-0.01,-0.0146,-0.0168,-0.017,-0.0186,-0.0187,-0.0188,-0.0219,-0.022,-0.022,-0.0221,-0.0273,-0.0275,-0.0277,-0.0278,0,0,-0.0282,-0.0283,0,0,0,0,0,0,0,0,-0.0126,-0.013,-0.0164,-0.0166,-0.0169,-0.0198,-0.019,-0.0219,-0.0219,-0.0201,-0.022,-0.0221,-0.025,-0.0253,-0.026,-0.0281,-0.0283,-0.0282,-0.0283,-0.0284,-0.0284,0,0,0,0,0,0,0,-0.0124,-0.0128,-0.0163,-0.0165,-0.0168,-0.0176,-0.0181,-0.0196,-0.0223,-0.0202,-0.0205,-0.0209,-0.0251,-0.0258,-0.0261,-0.0284,-0.0282,-0.0284,-0.0285,-0.0285,-0.0316,-0.0316,0,0,0,0,0,0,-0.0118,-0.0126,-0.0161,-0.0164,-0.0148,-0.0177,-0.0182,-0.0189,-0.0222,-0.0228,-0.0208,-0.021,-0.0255,-0.0259,-0.0263,-0.026,-0.0284,-0.0286,-0.0287,-0.0316,-0.0316,-0.0315,0,0,0,0,0,0,-0.0117,-0.0121,-0.016,-0.0146,-0.0151,-0.0177,-0.0184,-0.0189,-0.0199,-0.0227,-0.0232,-0.0214,-0.0255,-0.0261,-0.0275,-0.0263,-0.0286,-0.0288,-0.0316,-0.0316,-0.0316,-0.0258,0,0,0,0,0,0,-0.0116,-0.0121,-0.0124,-0.0145,-0.0152,-0.0165,-0.0184,-0.019,-0.0201,-0.0204,-0.0233,-0.0239,-0.0256,-0.0273,-0.0277,-0.0266,-0.0289,-0.0317,-0.0316,-0.0316,-0.026,-0.0256,-0.0252,0,0,0,0,0,-0.0114,-0.0114,-0.0124,-0.0129,-0.0156,-0.0164,-0.0168,-0.0188,-0.0201,-0.02,-0.0222,-0.0238,-0.0273,-0.0274,-0.0279,-0.0268,-0.0317,-0.0316,-0.0316,-0.0262,-0.0257,-0.0252,0,0,0,0,0,0,-0.0098,-0.0118,-0.013,-0.0137,-0.0148,-0.017,-0.0173,-0.0187,-0.0203,-0.0208,-0.0235,-0.0241,-0.025,-0.0269,-0.0269,-0.0277,-0.0298,-0.0298,-0.0255,-0.025,-0.0246,-0.0228,-0.0291,0,0,0,0,0,-0.0095,-0.01,-0.012,-0.0125,-0.013,-0.0151,-0.0159,-0.0171,-0.0188,-0.0197,-0.0217,-0.0238,-0.0251,-0.0259,-0.0277,-0.0279,-0.0304,-0.0276,-0.0272,-0.0268,-0.0258,-0.0285,-0.0282,-0.0314,-0.0314,-0.0314,0,0,-0.0091,-0.0102,-0.0106,-0.0122,-0.0134,-0.0129,-0.0157,-0.0164,-0.0158,-0.0199,-0.0201,-0.0226,-0.0251,-0.0254,-0.0259,-0.0267,-0.0275,-0.0268,-0.0264,-0.0256,-0.0284,-0.0281,-0.0278,-0.0313,-0.0313,-0.0314,0,0,-0.0074,-0.0094,-0.0088,-0.0093,-0.0106,-0.0116,-0.0116,-0.0136,-0.0144,-0.015,-0.0176,-0.0191,-0.0216,-0.0225,-0.0234,-0.0218,-0.0255,-0.0228,-0.0188,-0.0214,-0.0212,-0.021,-0.0244,-0.0246,-0.0223,-0.0223,-0.0223,0,-0.0066,-0.0064,-0.0087,-0.0078,-0.0075,-0.0106,-0.009,-0.01,-0.0122,-0.0121,-0.0144,-0.0173,-0.0198,-0.0191,-0.0188,-0.0206,-0.0234,-0.0202,-0.0208,-0.0207,-0.0205,-0.0241,-0.0244,-0.022,-0.022,-0.022,-0.0221,0,-0.0043,-0.0039,-0.0035,-0.0032,-0.0031,-0.0025,-0.0037,-0.0039,-0.0056,-0.0067,-0.0075,-0.011,-0.0126,-0.0137,-0.0158,-0.0156,-0.0184,-0.0202,-0.0217,-0.0199,-0.0238,-0.0241,-0.0216,-0.0217,-0.0218,-0.0218,0,0,-0.0024,-0.0018,-0.0016,0.0,-0.0005,0.0003,0.0015,0.0022,0.0033,0.0004,0.0015,-0.0014,-0.0042,-0.0053,-0.0084,-0.0105,-0.0129,-0.0146,-0.0149,-0.0174,-0.0197,-0.0206,-0.0212,-0.0151,-0.0151,-0.0151,-0.023,0,0.0004,0.0034,0.003,0.0067,0.0084,0.0072,0.009,0.0091,0.0078,0.0078,0.0043,0.0034,-0.0007,-0.0017,-0.0043,-0.0108,-0.0134,-0.0106,-0.0217,-0.022,-0.0225,-0.0214,-0.0152,-0.0233,-0.0234,-0.0234,-0.0235,0,0.0034,0.0051,0.0089,0.0124,0.0132,0.0149,0.0176,0.0186,0.0178,0.0164,0.0147,0.0112,0.0082,0.0038,-0.0052,-0.0036,-0.0108,-0.0161,-0.0166,-0.0194,-0.0235,-0.0255,-0.0242,-0.0241,-0.0241,-0.024,-0.024,0,0.0064,0.0098,0.0133,0.0142,0.0171,0.0191,0.0206,0.0212,0.0231,0.0215,0.0219,0.0172,0.0143,0.0059,-0.0054,-0.0057,-0.0165,-0.0185,-0.026,-0.0262,-0.0256,-0.0257,-0.0247,-0.0247,-0.0247,-0.0247,-0.0246,0,0.0097,0.0127,0.015,0.0168,0.0222,0.0226,0.0272,0.0277,0.0287,0.0314,0.0263,0.0263,0.0145,0.007,-0.0035,-0.0158,-0.0155,-0.0247,-0.0278,-0.0232,-0.023,-0.0259,-0.026,-0.025,-0.0249,-0.0248,-0.0248,0,0.0122,0.0134,0.0179,0.0216,0.0235,0.0269,0.0318,0.0349,0.0348,0.0379,0.0377,0.0323,0.0223,0.01,-0.0048,-0.0132,-0.025,-0.0297,-0.0241,-0.0268,-0.0335,-0.0332,-0.0379,-0.038,-0.0381,-0.0382,-0.0382,0,0.0137,0.016,0.0212,0.0244,0.0263,0.0312,0.0351,0.0374,0.0407,0.0416,0.0435,0.0356,0.0301,0.0098,-0.0049,-0.0246,-0.0276,-0.0341,-0.0331,-0.0321,-0.0347,-0.0342,-0.0338,-0.0383,-0.0384,-0.0384,-0.0384,0,0.0167,0.018,0.0215,0.0277,0.0324,0.0383,0.0438,0.0469,0.0496,0.05,0.0492,0.0392,0.0275,0.0109,-0.005,-0.0192,-0.0298,-0.0349,-0.0349,-0.0339,-0.0327,-0.035,-0.0345,-0.0386,-0.0386,-0.0386,-0.0386,0,0.0188,0.0213,0.0254,0.0312,0.0373,0.0435,0.0463,0.0506,0.0539,0.0553,0.0541,0.042,0.0346,0.0134,-0.0011,-0.0152,-0.0189,-0.0232,-0.0238,-0.0237,-0.0175,-0.0138,-0.0158,0,0,0,0,0,0.0207,0.0236,0.029,0.0351,0.041,0.0447,0.0518,0.0539,0.0567,0.0576,0.0565,0.0461,0.0255,0.0163,0.0022,-0.0045,-0.023,-0.0218,-0.0287,-0.0401,-0.0398,-0.035,0,0,0,0,0,0,0.022,0.0266,0.029,0.037,0.0415,0.0486,0.053,0.0552,0.0561,0.0568,0.0466,0.042,0.0219,0.0337,0.0018,-0.0027,-0.0092,-0.0313,-0.0316,-0.0402,-0.04,-0.0397,-0.0347,0,0,0,0,0]}]]